Location: Newark
(50.1751°N, 5.6239°W)
Time: 14:19:25
(UTC+00:00)

ISS - Pass Details

Date: 26 September 2021
Orbit: 417 x 423 km, 51.6° (Epoch: 28 October)

Event Time Altitude Azimuth Distance (km) Brightness Sun altitude
Rises 18:54:14 0° 269° (W) 2,362 2.3 -7.7°
Reaches altitude 10° 18:56:20 10° 272° (W) 1,500 0.8 -8.0°
Maximum altitude 18:59:41 67° 355° (N) 459 -3.5 -8.5°
Enters shadow 19:02:49 12° 79° (E) 1,407 -1.7 -9.0°
